Miscellaneous Local Product
Issued by NWS Hastings, NE

Home | Current Version | Previous Version | Text Only | Print | Product List | Glossary Off
Versions: 1 2 3 4 5 6 7 8 9 10 11 12 13 14 15 16 17 18 19 20 21 22 23 24 25 26 27 28 29 30 31 32 33 34 35 36 37 38 39 40 41 42 43 44 45 46 47 48 49 50

000
AXUS43 KGID 271502
MISGRI

GID CWA HOURLY WEATHER ROUNDUP
NATIONAL WEATHER SERVICE HASTINGS NE
900 AM CST FRI FEB 27 2015

NOTE: "FAIR" INDICATES FEW OR NO CLOUDS BELOW 12,000 FEET WITH NO
SIGNIFICANT WEATHER AND/OR OBSTRUCTIONS TO VISIBILITY.

...SOUTH CENTRAL NEBRASKA...

CITY           SKY/WX    TMP DP  RH WIND       PRES   REMARKS
GRAND ISLAND   SUNNY      5  -2  72 SW5       30.55R WCI  -4
HASTINGS       SUNNY      7   0  73 CALM      30.51S
KEARNEY        SUNNY      3   0  85 CALM      30.49S
ORD            SUNNY      2  -3  80 CALM      30.49S
YORK           SUNNY      5   0  78 S3        30.57R
AURORA         SUNNY      5  -1  76 CALM      30.55R
LEXINGTON      CLOUDY     5   0  77 CALM      30.45R
HOLDREGE       MOSUNNY    6  -1  74 CALM      30.47R
HEBRON         SUNNY      5  -1  77 CALM      30.59S

...NEBRASKA PANHANDLE...

CITY           SKY/WX    TMP DP  RH WIND       PRES   REMARKS
CHADRON        CLOUDY     9   0  67 S10       30.22F WCI  -5
ALLIANCE       CLOUDY     6   2  83 S15       30.19F WCI -12
SCOTTSBLUFF    CLOUDY     8   2  76 SE17      30.17S WCI -10
SIDNEY         LGT SNOW   7   2  80 SE15      30.17S WCI -10

...WESTERN AND NORTH CENTRAL NEBRASKA...

CITY           SKY/WX    TMP DP  RH WIND       PRES   REMARKS
VALENTINE      SUNNY      4  -2  76 SW6       30.38S WCI  -7
AINSWORTH      SUNNY      6   0  75 SW12      30.39S WCI  -9
ONEILL         SUNNY      2  -2  80 SW5       30.48R WCI  -7
BROKEN BOW     SUNNY      4  -2  76 CALM      30.44R
IMPERIAL       CLOUDY     7   0  73 SE14      30.32R WCI -10
NORTH PLATTE   PTSUNNY    5  -2  72 SE6       30.39S WCI  -6
MCCOOK         CLOUDY    11   0  61 SE10      30.42S WCI  -3

...EASTERN NEBRASKA...

CITY           SKY/WX    TMP DP  RH WIND       PRES   REMARKS
NORFOLK        SUNNY      3  -3  76 W3        30.55R
SO SIOUX CITY  SUNNY      1  -5  75 SW3       30.62R
TEKAMAH        SUNNY      3  -5  69 NW3       30.64R
COLUMBUS       SUNNY      3  -9  55 CALM      30.59R
ALBION         SUNNY     -2  -7  80 CALM      30.53S
OMAHA EPPLEY   SUNNY      3  -3  76 CALM      30.64R
OFFUTT AFB     SUNNY      3  -4  72 W2        30.63R
MILLARD        SUNNY      4  -3  71 NW3       30.63R
LINCOLN        SUNNY      4  -3  73 CALM      30.63R
NEBRASKA CITY  SUNNY      4  -4  68 CALM      30.62R
BEATRICE       SUNNY      4  -2  77 NE3       30.60R
FALLS CITY     SUNNY      6   0  76 CALM      30.65R

...NORTHERN KANSAS...

CITY           SKY/WX    TMP DP  RH WIND       PRES   REMARKS
GOODLAND       LGT SNOW  10   6  84 SE16      30.28S FOG     WCI  -7
HILL CITY      CLOUDY    10   0  63 SE10      30.49R WCI  -4
NORTON         CLOUDY     9   0  66 SE8       30.46R WCI  -4
PHILLIPSBURG   CLOUDY    12   1  62 SE6       30.53S WCI   3
HAYS           PTSUNNY   10  -6  48 SE9       30.51R WCI  -2
RUSSELL        PTSUNNY   10   1  67 SE8       30.53R WCI  -2
CONCORDIA      MOSUNNY    8   3  80 CALM      30.58R
SALINA         PTSUNNY   11   1  64 SE5       30.61R WCI   3
TOPEKA         MOSUNNY    9   0  67 SE3       30.67R



USA.gov is the U.S. government's official web portal to all federal, state and local government web resources and services.